Location: Frankfurt am Main
(50.1109°N, 8.6821°E)
Time: 21:13:51
(UTC+02:00)

NOAA 18 - Pass Details

Date: 04 February 2022
Orbit: 839 x 860 km, 98.9° (Epoch: 28 May)

Event Time Altitude Azimuth Distance (km) Brightness Sun altitude
Exits shadow 21:21:12 13° 354° (N) 2,266 7.7 -37.8°
Drops below altitude 10° 21:21:47 10° 352° (N) 2,486 7.9 -37.8°
Sets 21:24:12 0° 348° (NNW) 3,429 8.8 -38.2°
